SCP
0 0 0 0 0 0 0 0 0 0 0 0 0 0 0 0 0 0 0 0 0 0 0 0 0 0 0 0 0 0 0 0 0 0 0 0 0 0 0 0 0 0 0 0
0 0 0 0 0 0 0 0 0 0 0 0 0 0 0 0 0 0 0 0 0 0 0 0 0 0 0 0 0 0 0 0 0 0 0 0 0 0 0 0 0 0 0 0
0 0 0 0 0 0 0 0 0 0 0 0 0 0 0 0 0 0 0 0 0 0 0 0 0 0 0 0 0 0 0 0 0 0 0 0 0 0 0 0 0 0 0 0
0 0 0 0 0 0 0 0 0 0 0 0 0 0 0 0 0 0 0 0 0 0 0 0 0 0 0 0 0 0 0 0 0 0 0 0 0 0 0 0 0 0 0 0
0 0 0 0 0 0 0 0 0 0 0 0 0 0 0 0 0 0 0 0 0 0 0 0 0 0 0 0 0 0 0 0 0 0 0 0 0 0 0 0 0 0 0 0
0 0 0 0 0 0 0 0 0 0 0 0 0 0 0 0 0 0 0 0 0 0 0 0 0 0 0 0 0 0 0 0 0 0 0 0 0 0 0 0 0 0 0 0
0 0 0 0 0 0 0 0 0 0 0 0 0 0 0 0 0 0 0 0 0 0 0 0 0 0 0 0 0 0 0 0 0 0 0 0 0 0 0 0 0 0 0 0
0 0 0 0 0 0 0 0 0 0 0 0 0 0 0 0 0 0 0 0 0 0 0 0 0 0 0 0 0 0 0 0 0 0 0 0 0 0 0 0 0 0 0 0
0 0 0 0 0 0 0 0 0 0 0 0 0 0 0 0 0 0 0 0 0 0 0 0 0 0 0 0 0 0 0 0 0 0 0 0 0 0 0 0 0 0 0 0
0 0 0 0 0 0 0 0 0 0 0 0 0 0 0 0 0 0 0 0 0 0 0 0 0 0 0 0 0 0 0 0 0 0 0 0 0 0 0 0 0 0 0 0
0 0 0 0 0 0 0 0 0 0 0 0 0 0 0 0 0 0 0 0 0 0 0 0 0 0 0 0 0 0 0 0 0 0 0 0 0 0 0 0 0 0 0 0
0 0 0 0 0 0 0 0 0 0 0 0 0 0 0 0 0 0 0 0 0 0 0 0 0 0 0 0 0 0 0 0 0 0 0 0 0 0 0 0 0 0 0 0
0 0 0 0 0 0 0 0 0 0 0 0 0 0 0 0 0 0 0 0 0 0 0 0 0 0 0 0 0 0 0 0 0 0 0 0 0 0 0 0 0 0 0 0
0 0 0 0 0 0 0 0 0 0 0 0 0 0 0 0 0 0 0 0 0 0 0 0 0 0 0 0 0 0 0 0 0 0 0 0 0 0 0 0 0 0 0 0
0 0 0 0 0 0 0 0 0 0 0 0 0 0 0 0 0 0 0 0 0 0 0 0 0 0 0 0 0 0 0 0 0 0 0 0 0 0 0 0 0 0 0 0
0 0 0 0 0 0 0 0 0 0 0 0 0 0 0 0 0 0 0 0 0 0 0 0 0 0 0 0 0 0 0 0 0 0 0 0 0 0 0 0 0 0 0 0
0 0 0 0 0 0 0 0 0 0 0 0 0 0 0 0 0 0 0 0 0 0 0 0 0 0 0 0 0 0 0 0 0 0 0 0 0 0 0 0 0 0 0 0
0 0 0 0 0 0 0 0 0 0 0 0 0 0 0 0 0 0 0 0 0 0 0 0 0 0 0 0 0 0 0 0 0 0 0 0 0 0 0 0 0 0 0 0
0 0 0 0 0 0 0 0 0 0 0 0 0 0 0 0 0 0 0 0 0 0 0 0 0 0 0 0 0 0 0 0 0 0 0 0 0 0 0 0 0 0 0 0
0 0 0 0 0 0 0 0 0 0 0 0 0 0 0 0 0 0 0 0 0 -0 -0 0 0 0 0 0 0 0 0 0 0 0 0 0 0 0 0 0 0 0 0 0
0 0 0 0 0 0 0 0 0 0 0 0 0 0 0 0 0 0 0 0 0 0 0 0 0 0 0 0 0 0 0 0 0 0 0 0 0 0 0 0 0 0 0 0
0 0 0 0 0 0 0 0 0 0 0 0 0 0 0 0 0 0 0 0 0 0 0 0 0 0 0 0 0 0 0 0 0 0 0 0 0 0 0 0 0 0 0 0
0 0 0 0 0 0 0 0 0 0 0 0 0 0 0 0 0 0 0 0 0 0 0 0 0 0 0 0 0 0 0 0 0 0 0 0 0 0 0 0 0 0 0 0
0 0 0 0 0 0 0 0 0 0 0 0 0 0 0 0 0 0 0 0 0 0 0 0 0 0 0 0 0 0 0 0 0 0 0 0 0 0 0 0 0 0 0 0
0 0 0 0 0 0 0 -0 -0 0 0 0 0 0 0 0 0 0 0 0 0 0 0 0 0 0 0 0 0 0 0 0 0 0 0 0 0 0 0 0 0 0 0 0
0 0 0 0 0 0 -0 -0 0 0 0 0 0 0 0 0 0 0 0 0 0 0 0 0 0 0 0 0 0 0 0 0 0 0 0 0 0 0 0 0 0 0 0 0
Wind_Speed
2 4 2 5 6 4 4 3 3 4 2 3 4 6 6 4 4 5 5 6 7 8 6 4 4 4 4 4 5 5 5 4 4 2 2 2 1 0 0 0 1 2 2 3
4 2 5 3 3 2 2 2 3 3 1 3 3 6 6 4 6 8 8 8 8 7 4 4 4 5 6 6 6 5 6 6 5 3 3 2 2 1 1 0 1 2 2 3
4 4 2 4 3 3 2 4 4 3 2 2 1 5 5 4 3 4 5 6 7 9 8 6 6 6 6 6 7 7 6 6 5 5 3 3 3 2 1 1 0 0 2 2
3 4 2 3 4 5 4 5 5 3 1 2 1 3 7 4 4 4 5 5 7 8 7 6 7 6 7 8 6 6 6 6 5 6 5 5 4 3 3 2 1 1 1 2
3 2 2 4 5 6 5 1 2 2 3 0 1 2 8 2 4 7 6 7 7 7 7 8 8 9 8 7 6 6 6 5 5 5 6 5 4 3 2 1 2 1 0 1
4 2 2 4 2 4 4 5 5 5 4 1 3 3 8 4 6 6 5 6 6 6 6 7 6 5 5 5 4 5 6 5 5 6 6 6 6 5 4 3 2 1 1 0
4 4 2 1 1 2 4 5 3 4 3 5 2 3 9 7 5 6 6 6 5 5 6 6 6 6 6 6 6 5 6 6 5 6 6 6 6 7 6 5 4 3 2 1
1 5 3 2 4 4 3 7 7 4 4 5 2 5 8 6 4 3 3 3 2 3 5 6 7 7 7 7 7 6 7 6 6 6 6 5 5 4 4 5 4 4 4 3
4 5 4 2 2 7 5 3 5 6 2 1 5 6 8 3 2 2 1 1 2 3 4 5 5 6 6 7 7 8 7 6 6 6 5 5 5 5 5 4 4 3 3 3
6 4 4 3 2 2 4 7 5 5 4 3 5 4 5 5 4 4 3 3 3 2 3 3 4 4 5 5 5 5 6 6 6 5 5 5 5 5 4 4 4 4 4 3
4 3 4 2 2 3 3 3 4 4 4 5 3 7 6 6 5 4 4 3 3 2 2 3 3 3 4 4 4 5 5 4 4 5 5 4 4 4 4 4 5 4 4 4
3 4 3 5 3 2 4 5 7 5 4 4 3 8 4 4 4 3 3 3 2 2 1 1 2 2 3 4 4 5 5 5 5 5 5 5 4 4 4 4 4 4 4 4
4 4 1 5 4 2 1 3 4 5 4 4 4 8 3 2 1 1 2 2 2 1 0 1 1 2 3 4 4 5 5 5 4 4 4 4 4 4 5 5 4 4 4 4
5 4 6 7 6 3 3 3 4 5 4 5 8 8 6 4 3 3 2 2 1 1 1 1 1 1 2 3 4 4 4 4 4 4 4 5 5 5 5 4 4 4 4 4
3 3 4 6 5 4 4 5 5 7 8 8 8 8 9 6 5 4 2 1 0 0 1 1 2 2 2 2 2 3 4 4 4 5 5 5 4 4 4 4 4 4 4 4
2 2 2 3 3 4 5 6 6 7 6 7 6 8 5 3 1 2 2 2 2 2 2 2 2 2 2 3 3 3 3 4 4 5 5 4 3 3 4 4 4 3 3 3
1 3 2 4 3 2 6 6 6 5 4 5 7 8 3 1 2 4 3 3 4 4 3 3 3 4 4 4 3 3 4 3 4 5 4 4 4 4 4 3 3 4 4 3
4 3 2 1 0 6 7 3 5 5 4 4 3 3 3 4 3 2 2 3 4 4 3 3 3 3 3 2 2 2 2 3 4 4 4 4 4 4 4 4 3 3 3 4
4 5 3 2 3 7 6 2 3 4 4 3 4 3 2 0 2 2 2 3 4 4 3 3 3 2 2 1 2 2 2 2 3 3 4 4 5 5 4 5 4 4 3 3
2 3 4 3 3 6 6 3 2 2 4 3 3 4 2 2 0 5 3 2 2 2 1 1 1 0 1 1 2 2 2 2 3 4 3 3 4 5 5 5 4 3 4 4
1 1 3 4 5 8 6 3 2 3 6 3 3 4 4 4 5 4 2 2 1 1 1 1 1 1 1 1 2 2 2 3 3 3 2 3 3 4 4 4 3 3 3 3
5 4 5 4 4 8 2 2 4 6 3 2 2 2 3 3 3 2 1 1 1 0 0 1 1 0 0 1 2 1 2 2 1 2 2 2 2 2 2 3 3 3 4 3
6 7 5 7 7 5 2 4 4 2 2 2 2 2 2 2 2 2 2 2 1 1 1 1 2 0 1 0 1 1 1 1 2 2 2 1 1 1 2 3 3 3 3 3
3 2 3 4 6 5 4 3 2 2 2 2 1 1 2 2 2 2 2 2 2 1 1 1 2 1 1 1 1 1 1 1 3 2 2 2 2 2 2 2 2 3 3 3
4 2 2 5 6 4 4 3 3 2 2 2 1 1 2 2 2 2 2 2 2 2 1 1 2 2 1 1 1 1 0 2 2 2 2 2 2 2 2 1 1 2 2 3
5 6 6 7 6 4 6 5 3 2 2 2 1 2 1 2 3 2 2 2 2 2 1 1 1 2 1 1 1 1 1 2 3 2 2 2 2 2 2 2 1 1 1 2
Wind_Direction
70 86 181 209 194 183 170 178 230 255 236 171 224 253 262 230 207 220 224 218 219 225 225 205 190 174 163 167 169 171 167 165 148 135 136 132 142 143 91 126 130 133 134 130
53 254 233 187 163 152 165 197 250 283 258 176 243 270 266 228 215 215 216 218 218 219 211 198 187 177 179 184 184 183 182 176 172 164 154 145 140 140 151 123 104 133 140 144
181 238 180 148 153 159 218 201 223 236 349 30 6 308 288 271 239 236 226 218 214 211 208 201 192 192 187 192 194 193 193 187 180 161 125 98 79 61 58 53 93 145 144 142
230 254 174 164 193 171 239 230 209 191 134 282 133 280 285 272 277 249 237 226 222 218 208 198 192 192 195 201 197 192 188 185 180 163 156 156 160 175 196 183 174 147 133 137
246 227 185 202 215 178 213 199 156 157 160 302 349 216 281 298 268 258 242 232 228 215 203 202 199 197 198 196 191 189 181 182 179 175 174 169 172 180 157 136 139 139 121 134
250 260 212 216 211 172 147 77 61 54 76 283 235 191 275 249 233 255 248 236 228 212 203 205 202 191 191 185 183 180 177 185 182 181 180 180 178 171 159 164 167 176 183 170
323 310 286 197 114 73 101 93 37 2 8 255 248 205 251 255 241 238 248 244 226 202 195 196 193 190 189 184 186 184 182 189 184 184 189 190 186 179 183 183 182 180 183 199
216 288 270 220 184 175 166 143 158 194 220 272 290 236 255 264 272 256 245 235 209 202 198 199 197 193 194 190 186 183 187 192 184 186 195 191 184 183 190 188 182 187 194 199
184 257 284 244 210 146 142 172 167 139 167 253 275 285 299 295 326 331 316 275 224 218 203 201 197 193 191 188 189 186 186 189 189 189 185 185 183 182 187 184 181 187 195 192
168 234 285 295 80 44 144 144 108 128 164 240 278 272 255 279 289 305 302 277 263 236 201 194 195 194 191 188 185 178 180 188 188 183 185 186 188 189 183 174 186 191 193 187
154 186 296 357 169 184 115 121 126 134 162 168 245 266 231 229 244 251 262 264 256 238 217 196 193 194 182 170 169 173 176 177 180 184 185 181 183 182 175 184 194 193 187 185
153 137 250 264 257 196 163 166 150 159 218 186 198 263 274 237 239 229 247 259 263 238 207 185 177 167 169 173 176 180 181 183 191 187 180 182 178 171 176 192 195 189 190 191
140 122 38 334 337 6 141 166 162 144 140 170 195 260 300 344 326 255 233 252 260 248 207 111 127 169 191 191 187 188 191 195 190 174 170 171 175 181 191 197 192 184 189 188
127 139 176 206 225 222 235 210 174 152 176 210 222 246 280 293 287 281 260 250 253 233 188 140 187 218 215 204 195 196 201 195 180 172 173 180 192 195 196 192 186 185 184 183
119 186 220 237 242 221 228 231 209 204 204 208 234 235 250 248 244 246 241 218 155 276 263 223 219 233 225 214 207 198 201 190 180 177 187 202 200 189 180 179 185 183 183 189
93 187 217 268 256 234 249 247 230 231 227 228 242 258 257 247 238 251 236 197 195 224 240 243 233 230 230 222 220 212 205 197 181 185 199 198 183 182 186 186 180 177 178 178
145 149 161 259 291 323 262 233 216 219 222 201 224 245 258 247 246 239 233 216 218 225 224 230 233 228 229 225 211 212 214 189 181 191 194 186 181 182 190 185 172 179 183 175
167 149 158 228 41 238 248 242 212 211 235 219 221 237 220 221 244 253 223 211 231 235 232 235 238 244 242 222 213 213 191 177 182 192 190 182 177 182 179 168 180 193 187 185
176 157 144 149 223 271 291 281 202 204 244 225 215 229 238 221 31 315 259 227 231 236 237 235 234 235 234 206 181 166 180 176 177 195 200 194 182 180 177 181 188 188 181 192
92 125 135 153 200 242 251 273 241 153 259 246 196 208 212 120 118 264 265 256 256 261 250 242 246 130 180 200 141 140 177 178 201 213 209 194 182 184 188 192 189 181 182 194
98 118 176 190 223 258 257 281 96 167 250 257 203 204 193 196 218 242 263 261 241 249 234 142 125 147 213 175 144 152 177 212 221 206 183 177 181 187 187 181 175 168 174 173
183 185 199 177 209 251 261 125 182 229 263 259 232 217 209 232 252 265 256 245 228 283 103 107 109 307 290 147 146 171 229 236 192 161 157 165 168 178 171 164 164 160 160 164
202 197 194 197 219 245 247 226 255 246 249 257 243 244 202 215 247 264 260 247 231 205 183 155 144 114 342 354 162 206 259 190 142 139 149 154 149 151 148 151 158 153 156 166
254 187 185 248 262 263 267 267 276 258 258 266 236 206 186 219 240 249 253 258 254 243 225 178 141 144 299 317 334 256 229 148 139 146 156 157 153 149 143 146 159 161 171 181
237 198 216 254 271 294 283 264 263 282 301 310 306 252 217 203 236 238 245 247 243 244 243 200 181 196 241 306 328 323 173 144 147 156 162 163 162 158 151 152 167 178 191 191
213 200 204 233 236 227 260 276 261 254 276 272 279 303 289 220 229 241 251 246 228 219 215 203 202 199 214 200 295 309 270 171 161 163 174 172 165 163 155 141 85 38 179 198